Starlink 3146

operational
NORAD ID: 49414 Int'l Des: 2021-104 Owner: SPXS Country: US Constellation: starlink
LEOCIRCULAR

About Starlink 3146

Description loading...

Live Position

Loading 3D Globe...

Upcoming Passes

Altitude History

Altitude vs Time

uPlot chart will show altitude changes over time

Two-Line Element Set

1 49414U 21104G 26034.40324473 .00003156 00000-0 21631-3 0 9993
2 49414 53.2185 23.0370 0001462 85.7339 274.3820 15.08836265233458
Epoch: Feb 3, 2026 • Age: 18 hours

Current Status

Altitude 541.5 km
Velocity 7.59 km/s
Sub-Earth Point -4.86°S, 9.12°E
Launch Date Nov 13, 2021
Age 4.2 years
Type internet

Technical Details

Classification Payload
Mass 290.00 kg
Dry Mass 270.00 kg
Total Mass 290.00 kg
Length 0.20 m
Diameter 2.80 m
Span 9.00 m
Shape Box + pan
Manufacturer SPXS
Bus Type Starlink
Phase Status In Orbit
Owner/State SPXS/US

Large Constellations

Loading constellations...